Volver al catálogo

FENGYUN 1C DEB

ActivoSSO
NORAD 30567·DEBRIS·🇨🇳 China

Lanzado May 10, 1999 desde Taiyuan Satellite Launch Center

Loading…

Próximos Pases (próximas 24 horas)

TLE

ActualizadoSource: Space-Track

Época: Sep 14, 2026, 22:13 UTC

1 30567U 99025ALH 26257.92600050  .00000256  00000-0  16268-3 0  9999
2 30567  98.7971 246.8107 0109527 129.4874 260.7954 14.09160779  6633

Sigue FENGYUN 1C DEB en tiempo real con AllMySat

Download on the App Store